Погода в Симагине

Россия / Санкт-Петербург и Ленинградская область     60°16′29″N   29°49′12″E
темп.,
°C
ветер,
м/с
пор.,
м/с
влажн.,
%
обл.,
%
осадки,
мм/ч
давл.,
гПа
погр.,
м
6 августа, пт
пт600:00+13св24717 0.0 1016107
03:00+11ссв34745 0.0 101680
06:00+11ссв368143 0.0 1015137
09:00+18всв36585 0.0 1015841
12:00+20всв68518 0.0 10151691
15:00+18всв7105548 0.0 10151582
18:00+17всв6126222 0.0 10151420
21:00+15всв6127255 0.0 1014932
7 августа, сб
сб700:00+14всв6128436 0.0 1013633
03:00+14всв61387100 0.0 1012557
06:00+14всв71387100 0.0 1011581
09:00+15всв71386100 0.1 1010667
12:00+14всв71394100 1.1 1009644
15:00+15всв71394100 1.8 1008738
18:00+16в61397100 6.6 1007749
21:00+16в51098100 9.7 1007581
8 августа, вс
вс800:00+16в4799100 0.2 1007302
03:00+16вюв2599100 0.3 1007229
06:00+16вюв2599100 0.4 1007228
09:00+18ю358546 0.7 1009467
12:00+21ююв346158 0.1 10101011
15:00+21юз336430 0.3 1011950
18:00+20ююз227314 0.1 1012586
21:00+17юв1288100 0.1 101314
9 августа, пн
пн900:00+16вюв3592100 0.0 1013106
03:00+15вюв259595 0.0 1014104
06:00+16юв3694100 0.0 1013169
09:00+19юв4777100 0.0 1012385
12:00+20юв477475 0.1 1012667
15:00+21зюз577925 0.6 1013631
18:00+21ююз477998 0.4 1013631
21:00+18юз499328 0.8 1014391
10 августа, вт
вт1000:00+17зюз399629 0.2 1015412
03:00+16ююз369723 0.2 1016186
06:00+15ююз369459 0.0 1016205
09:00+18юз46791 0.0 1017530
12:00+20юз456492 0.0 1018868
15:00+21зюз3458100 0.0 10181116
18:00+21зюз3362100 0.0 1017725
21:00+18зсз1177100 0.0 101711